Find Starlink 3612

NORAD ID: 51770 Int'l Des: 2022-017 Owner: SPXS Country: US Constellation: starlink operational
LEOCIRCULAR

現在のビュー

3D地球を読み込み中...

About Starlink 3612

Starlink 3612 (NORAD 51770) is a starlink constellation satellite (v1.5) launched Feb 25, 2022 by SPXS of US. It operates in LEO, CIRCULAR orbit with a mass of 297.00 kg.

Starlink 3612について

説明を読み込み中...

次回通過

Passes for default location (London). Set your location on the main map for personalized predictions.

高度履歴

Loading altitude history...

軌道要素

1 51770U 22017C 26171.35551898 .00000227 00000-0 32391-4 0 9996
2 51770 53.1598 238.1198 0001225 87.9323 272.1809 15.08829932238118
Epoch: Jun 20, 2026 • Age: 45 hours

現在のステータス

高度 540.2 km
速度 7.60 km/s
衛星直下点 23.79°N, 99.16°W
打ち上げ日 Feb 25, 2022
運用期間 4.3 years
タイプ internet

技術仕様

分類 Payload
質量 297.00 kg
乾燥質量 275.00 kg
総質量 297.00 kg
長さ 0.20 m
直径 2.80 m
スパン 9.00 m
形状 Box + pan
製造者 SPXS
バスタイプ Starlink
フェーズステータス In Orbit
所有者/国 SPXS/US

Most Searched